Location: *
(37.5724°S, 58.0067°E)
Time: 11:43:25
(UTC+00:00)

Cosmos 1371 Rocket - Pass Details

Date: 26 September 2020
Orbit: 754 x 789 km, 74.0° (Epoch: 29 October)

Event Time Altitude Azimuth Distance (km) Brightness Sun altitude
Rises 16:07:33 0° 203° (SSW) 3,267 7.9 -23.8°
Reaches altitude 10° 16:09:58 10° 206° (SSW) 2,338 7.1 -24.3°
Maximum altitude 16:15:12 61° 284° (WNW) 887 4.4 -25.2°
Enters shadow 16:17:11 36° 348° (NNW) 1,211 4.9 -25.6°
